DW3664 Weather Reports


time (UTC)temp
C
wind
direction
speed
KPH
gust
KPH
rain 1hr
cm
rain 24hr
cm
rain mn
cm
humidity
%
barometer
mb
20260505195757 15 56 3.2 6.4 0.00 0.00 0.00 64 1015.8
20260505194904 16 186 3.2 4.8 0.00 0.00 0.00 63 1016.1
20260505194224 16 185 1.6 4.8 0.00 0.00 0.00 64 1016.1
20260505193544 16 217 1.6 6.4 0.00 0.00 0.00 65 1016.1
20260505192904 15 123 1.6 8.0 0.00 0.00 0.00 66 1015.8
20260505192435 15 170 1.6 6.4 0.00 0.00 0.00 66 1016.1
20260505191755 15 239 1.6 4.8 0.00 0.00 0.00 66 1015.8
20260505190904 15 247 1.6 8.0 0.00 0.00 0.00 67 1015.8
20260505190224 15 272 6.4 9.7 0.00 0.00 0.00 66 1015.8
20260505185544 15 255 1.6 6.4 0.00 0.00 0.00 66 1015.8
20260505185118 15 233 1.6 8.0 0.00 0.00 0.00 66 1015.8
20260505184224 15 245 1.6 8.0 0.00 0.00 0.00 66 1015.8
20260505183544 15 318 3.2 6.4 0.00 0.00 0.00 65 1015.8
20260505182904 15 220 1.6 6.4 0.00 0.00 0.00 65 1015.8
20260505182435 15 268 1.6 6.4 0.00 0.00 0.00 65 1015.8
20260505181543 15 233 3.2 9.7 0.00 0.00 0.00 66 1015.8
20260505180904 15 164 4.8 9.7 0.00 0.00 0.00 65 1015.8
20260505180432 15 97 1.6 8.0 0.00 0.00 0.00 66 1015.8
20260505175543 15 240 1.6 8.0 0.00 0.00 0.00 67 1015.8
20260505174903 15 100 4.8 8.0 0.00 0.00 0.00 66 1015.8
20260505174223 14 127 3.2 8.0 0.00 0.00 0.00 67 1015.8
20260505173755 14 173 4.8 8.0 0.00 0.00 0.00 68 1015.8
20260505172903 14 168 3.2 8.0 0.00 0.00 0.00 69 1015.8
20260505172436 13 148 3.2 8.0 0.00 0.00 0.00 70 1015.8
20260505171543 13 165 3.2 8.0 0.00 0.00 0.00 70 1015.8
20260505170903 13 137 3.2 9.7 0.00 0.00 0.00 71 1015.4
20260505170433 13 164 3.2 9.7 0.00 0.00 0.00 72 1015.4
20260505165543 13 158 4.8 9.7 0.00 0.00 0.00 72 1015.4
20260505164903 13 168 4.8 9.7 0.00 0.00 0.00 71 1015.4
20260505164223 13 193 3.2 8.0 0.00 0.00 0.00 72 1015.4
20260505163543 13 220 1.6 8.0 0.00 0.00 0.00 73 1015.4
20260505162903 13 179 3.2 6.4 0.00 0.00 0.00 73 1015.4
20260505162437 13 192 1.6 8.0 0.00 0.00 0.00 74 1015.4
20260505161543 13 174 4.8 8.0 0.00 0.00 0.00 72 1015.4
20260505160906 13 141 3.2 6.4 0.00 0.00 0.00 74 1015.4
20260505160223 13 90 3.2 6.4 0.00 0.00 0.00 75 1015.4
20260505152903 12 140 1.6 6.4 0.00 0.00 0.00 78 1015.4
20260505152223 12 138 1.6 4.8 0.00 0.00 0.00 79 1015.4
20260505151753 12 102 1.6 4.8 0.00 0.00 0.00 80 1015.1
20260505150903 12 343 0.0 4.8 0.00 0.00 0.00 81 1015.1
20260505150223 12 91 1.6 4.8 0.00 0.00 0.00 82 1015.1
20260505140223 11 183 3.2 6.4 0.00 0.00 0.00 83 1014.7
20260505130222 12 93 1.6 3.2 0.00 0.00 0.00 80 1014.4
20260505124902 12 203 1.6 3.2 0.00 0.00 0.00 79 1014.1
20260505124222 12 196 1.6 3.2 0.00 0.00 0.00 79 1014.1
20260505123542 12 183 0.0 3.2 0.00 0.00 0.00 79 1014.1
20260505122902 12 267 1.6 1.6 0.00 0.00 0.00 79 1014.1
20260505122222 12 208 0.0 1.6 0.00 0.00 0.00 79 1014.1
20260505121755 12 223 0.0 1.6 0.00 0.00 0.00 79 1014.1
20260505121116 12 243 1.6 3.2 0.00 0.00 0.00 79 1014.1
20260505120222 12 260 1.6 1.6 0.00 0.00 0.00 79 1014.1
20260505115543 12 306 1.6 3.2 0.00 0.00 0.00 79 1014.1
20260505114902 12 191 1.6 3.2 0.00 0.00 0.00 79 1014.1
20260505114222 12 155 1.6 3.2 0.00 0.00 0.00 79 1014.1
20260505113542 12 253 1.6 1.6 0.00 0.00 0.00 79 1014.1
20260505112903 12 247 0.0 3.2 0.00 0.00 0.00 79 1014.1
20260505112223 12 242 1.6 4.8 0.00 0.00 0.00 79 1014.1
20260505111543 12 258 1.6 4.8 0.00 0.00 0.00 79 1014.1
20260505110903 12 250 0.0 3.2 0.00 0.00 0.00 79 1013.7
20260505110223 12 326 1.6 3.2 0.00 0.00 0.00 79 1013.7
20260505101543 11 286 3.2 6.4 0.00 0.00 0.00 81 1013.7
20260505100903 11 273 3.2 6.4 0.00 0.00 0.00 81 1013.4
20260505100223 11 255 0.0 6.4 0.00 0.00 0.00 81 1013.4
20260505095544 11 280 3.2 6.4 0.00 0.00 0.00 81 1013.4
20260505094903 11 284 3.2 4.8 0.00 0.00 0.00 81 1013.4
20260505094224 12 323 1.6 3.2 0.00 0.00 0.00 80 1013.4
20260505093755 11 338 1.6 3.2 0.00 0.00 0.00 81 1013.4
20260505092903 11 295 1.6 3.2 0.00 0.00 0.00 81 1013.4
20260505092223 12 300 1.6 3.2 0.00 0.00 0.00 80 1013.4
20260505091543 12 293 1.6 3.2 0.00 0.00 0.00 80 1013.4
20260505090903 12 4 1.6 3.2 0.00 0.00 0.00 80 1013.0
20260505090223 12 8 1.6 3.2 0.00 0.00 0.00 80 1013.0
20260505085543 12 11 1.6 3.2 0.00 0.00 0.00 80 1013.0
20260505084903 12 346 1.6 1.6 0.00 0.00 0.00 81 1013.0
20260505084223 12 192 0.0 3.2 0.00 0.00 0.00 80 1013.0
20260505083544 12 327 1.6 3.2 0.00 0.00 0.00 80 1013.0
20260505082903 12 6 0.0 4.8 0.00 0.00 0.00 79 1013.0
20260505082223 12 293 3.2 4.8 0.00 0.00 0.00 78 1013.0
20260505081543 12 260 1.6 6.4 0.00 0.00 0.00 78 1013.0
20260505080903 12 290 3.2 6.4 0.00 0.00 0.00 77 1013.0
20260505080223 12 291 3.2 6.4 0.00 0.00 0.00 76 1012.7
20260505075543 13 276 3.2 9.7 0.00 0.00 0.00 76 1012.7
20260505074903 13 276 4.8 9.7 0.00 0.00 0.00 75 1012.7
20260505074222 13 280 4.8 6.4 0.00 0.00 0.00 75 1012.7
20260505073542 13 270 1.6 4.8 0.00 0.00 0.00 76 1012.4
20260505072902 13 238 1.6 4.8 0.00 0.00 0.00 75 1012.4
20260505072222 13 303 1.6 4.8 0.00 0.00 0.00 75 1012.4
20260505071542 13 290 1.6 3.2 0.00 0.00 0.00 75 1012.0
20260505070902 13 243 1.6 3.2 0.00 0.00 0.00 74 1012.0
20260505070222 13 294 1.6 6.4 0.00 0.00 0.00 74 1012.0
20260505065542 14 277 3.2 6.4 0.00 0.00 0.00 74 1012.0
20260505064902 14 271 1.6 6.4 0.00 0.00 0.00 73 1012.0
20260505064222 14 274 3.2 6.4 0.00 0.00 0.00 73 1011.7
20260505063751 14 240 1.6 4.8 0.00 0.00 0.00 73 1011.7
20260505062902 14 272 3.2 11.3 0.00 0.00 0.00 72 1011.7
20260505062222 14 275 3.2 6.4 0.00 0.00 0.00 72 1011.3
20260505061542 15 264 1.6 6.4 0.00 0.00 0.00 72 1011.3
20260505060902 15 259 3.2 6.4 0.00 0.00 0.00 72 1011.3
20260505060222 15 238 1.6 8.0 0.00 0.00 0.00 71 1011.3
20260505055542 15 251 1.6 9.7 0.00 0.00 0.00 71 1011.3
20260505054902 15 235 3.2 9.7 0.00 0.00 0.00 70 1011.3
20260505054222 15 265 3.2 9.7 0.00 0.00 0.00 69 1011.3
20260505053542 15 275 4.8 9.7 0.00 0.00 0.00 69 1011.3
20260505052902 16 271 3.2 9.7 0.00 0.00 0.00 68 1011.0
20260505052222 16 270 3.2 9.7 0.00 0.00 0.00 68 1011.0
20260505051542 16 269 4.8 8.0 0.00 0.00 0.00 67 1011.0
20260505051115 16 256 3.2 11.3 0.00 0.00 0.00 66 1011.0
20260505050436 16 267 3.2 11.3 0.00 0.00 0.00 66 1011.0
20260505041542 18 249 3.2 6.4 0.00 0.00 0.00 59 1010.3
20260505040902 19 224 3.2 8.0 0.00 0.00 0.00 58 1010.3
20260505040436 19 246 3.2 9.7 0.00 0.00 0.00 59 1010.3
20260505035751 19 264 4.8 9.7 0.00 0.00 0.00 59 1010.0
20260505034902 20 205 3.2 4.8 0.00 0.00 0.00 59 1010.0
20260505034222 20 209 1.6 9.7 0.00 0.00 0.00 60 1009.6
20260505033542 20 189 1.6 6.4 0.00 0.00 0.00 59 1009.6
20260505032902 20 202 1.6 4.8 0.00 0.00 0.00 58 1009.6
20260505032222 20 197 1.6 8.0 0.00 0.00 0.00 57 1009.3
20260505031542 21 174 3.2 8.0 0.00 0.00 0.00 56 1009.3
20260505030902 21 196 1.6 6.4 0.00 0.00 0.00 56 1009.3
20260505030222 21 187 1.6 9.7 0.00 0.00 0.00 55 1009.3
20260505025752 22 166 4.8 9.7 0.00 0.00 0.00 54 1009.3
20260505024903 22 166 3.2 9.7 0.00 0.00 0.00 54 1009.3
20260505024222 22 164 3.2 8.0 0.00 0.00 0.00 53 1009.3
20260505023542 22 206 1.6 8.0 0.00 0.00 0.00 52 1008.9
20260505022902 22 196 3.2 6.4 0.00 0.00 0.00 52 1008.9
20260505022435 23 214 1.6 6.4 0.00 0.00 0.00 53 1008.9
20260505021542 22 169 3.2 6.4 0.00 0.00 0.00 54 1008.9
20260505021111 22 145 1.6 8.0 0.00 0.00 0.00 53 1008.9
20260505020222 22 178 3.2 9.7 0.00 0.00 0.00 53 1008.9
20260505015543 23 166 3.2 6.4 0.00 0.00 0.00 52 1008.9
20260505015114 23 202 1.6 8.0 0.00 0.00 0.00 52 1008.9
20260505014222 23 188 3.2 14.5 0.00 0.00 0.00 53 1008.9
20260505013542 22 160 6.4 14.5 0.00 0.00 0.00 53 1008.9
20260505012902 23 156 6.4 12.9 0.00 0.00 0.00 53 1008.9
20260505012222 22 169 6.4 14.5 0.00 0.00 0.00 53 1008.9
20260505011542 23 162 9.7 14.5 0.00 0.00 0.00 53 1008.9
20260505010902 23 174 8.0 17.7 0.00 0.00 0.00 52 1009.3
20260505010222 23 143 6.4 11.3 0.00 0.00 0.00 52 1009.3
20260505005545 23 165 6.4 14.5 0.00 0.00 0.00 52 1009.3
20260505004902 23 167 6.4 14.5 0.00 0.00 0.00 52 1009.3
20260505004221 23 176 6.4 14.5 0.00 0.00 0.00 50 1009.3
20260505003542 23 144 6.4 16.1 0.00 0.00 0.00 51 1009.3
20260505002902 23 167 8.0 16.1 0.00 0.00 0.00 50 1009.3
20260505002224 23 189 4.8 11.3 0.00 0.00 0.00 50 1009.3
20260505001542 24 210 3.2 16.1 0.00 0.00 0.00 50 1009.3
20260505000902 23 133 9.7 16.1 0.00 0.00 0.00 52 1009.3
20260505000226 23 164 9.7 16.1 0.00 0.00 0.00 51 1009.3
20260504235754 23 154 6.4 14.5 0.00 0.00 0.00 50 1009.6
20260504235115 23 163 8.0 16.1 0.00 0.00 0.00 50 1009.6
20260504234436 23 198 4.8 11.3 0.00 0.00 0.00 50 1009.6
20260504233542 24 212 4.8 16.1 0.00 0.00 0.00 49 1009.6
20260504232902 23 168 8.0 19.3 0.00 0.00 0.00 50 1009.6
20260504232222 23 137 4.8 14.5 0.00 0.00 0.00 48 1009.6
20260504231753 23 167 4.8 14.5 0.00 0.00 0.00 49 1009.6
20260504230902 23 177 4.8 16.1 0.00 0.00 0.00 49 1010.0
20260504230222 23 234 4.8 9.7 0.00 0.00 0.00 48 1010.0
20260504225545 23 212 3.2 11.3 0.00 0.00 0.00 47 1010.0
20260504224902 23 243 3.2 8.0 0.00 0.00 0.00 47 1010.0
20260504224222 23 213 3.2 8.0 0.00 0.00 0.00 47 1010.3
20260504223542 23 237 1.6 8.0 0.00 0.00 0.00 49 1010.3
20260504222902 22 163 3.2 12.9 0.00 0.00 0.00 48 1010.3
20260504222222 22 173 6.4 12.9 0.00 0.00 0.00 49 1010.3
20260504221542 22 244 3.2 11.3 0.00 0.00 0.00 50 1010.3
20260504220902 22 94 4.8 11.3 0.00 0.00 0.00 50 1010.6
20260504220435 22 159 4.8 11.3 0.00 0.00 0.00 49 1010.6
20260504215542 22 133 3.2 11.3 0.00 0.00 0.00 50 1010.6
20260504214902 21 109 3.2 12.9 0.00 0.00 0.00 50 1010.6
20260504214222 21 176 4.8 12.9 0.00 0.00 0.00 50 1011.0
20260504213542 21 183 6.4 12.9 0.00 0.00 0.00 50 1011.0
20260504213113 21 131 3.2 11.3 0.00 0.00 0.00 51 1011.0
20260504212222 21 139 6.4 11.3 0.00 0.00 0.00 49 1011.0
20260504211542 21 137 3.2 9.7 0.00 0.00 0.00 51 1011.0
20260504210902 21 215 4.8 12.9 0.00 0.00 0.00 51 1011.3
20260504210222 20 133 3.2 9.7 0.00 0.00 0.00 52 1011.3
20260504205542 21 189 3.2 12.9 0.00 0.00 0.00 50 1011.7
20260504205117 20 159 6.4 12.9 0.00 0.00 0.00 52 1011.7
20260504204222 20 2 3.2 12.9 0.00 0.00 0.00 53 1011.7
20260504203542 20 70 3.2 12.9 0.00 0.00 0.00 54 1012.0
20260504202902 20 187 6.4 11.3 0.00 0.00 0.00 54 1012.0
20260504202222 19 45 4.8 14.5 0.00 0.00 0.00 55 1012.0
20260504201542 18 172 4.8 12.9 0.00 0.00 0.00 56 1012.0
20260504200902 18 174 8.0 12.9 0.00 0.00 0.00 56 1012.0